Location: *
(50.3440°N, 18.6237°E)
Time: 18:21:11
(UTC+00:00)

Cosmos 1151 Rocket - Pass Details

Date: 30 November 2020
Orbit: 593 x 614 km, 82.5° (Epoch: 23 January)

Event Time Altitude Azimuth Distance (km) Brightness Sun altitude
Rises 15:18:10 0° 149° (SSE) 2,834 6.4 -5.3°
Reaches altitude 10° 15:20:49 10° 133° (SE) 1,934 5.4 -5.7°
Maximum altitude 15:23:56 20° 86° (E) 1,404 4.4 -6.1°
Drops below altitude 10° 15:27:02 10° 39° (NE) 1,940 5.0 -6.5°
Enters shadow 15:29:03 - 26° (NNE) 2,611 5.8 -6.8°
